Time,TemperatureF,DewpointF,PressureIn,WindDirection,WindDirectionDegrees,WindSpeedMPH,WindSpeedGustMPH,Humidity,HourlyPrecipIn,Conditions,Clouds,dailyrainin,SoftwareType,DateUTC
2013-03-19 00:00:00,32.3,30.5,29.82,WSW,255,0.0,0.0,93,0.00,,SKC,0.11,VWS V14.01,2013-03-19 04:00:00,
2013-03-19 00:05:00,32.3,30.5,29.82,WSW,255,0.0,0.0,93,0.00,,SKC,0.11,VWS V14.01,2013-03-19 04:05:00,
2013-03-19 00:10:00,32.3,30.5,29.82,WSW,255,0.0,0.0,93,0.01,,SKC,0.00,VWS V14.01,2013-03-19 04:10:00,
2013-03-19 00:15:00,32.3,30.5,29.82,WSW,255,0.0,0.0,93,0.01,,SKC,0.00,VWS V14.01,2013-03-19 04:15:00,
2013-03-19 00:20:00,32.3,30.5,29.82,WSW,255,0.0,0.0,93,0.01,,SKC,0.00,VWS V14.01,2013-03-19 04:20:00,
2013-03-19 00:25:00,32.3,30.5,29.82,WSW,255,0.0,0.0,93,0.01,,SKC,0.00,VWS V14.01,2013-03-19 04:25:00,
2013-03-19 00:30:00,32.3,30.5,29.82,WSW,255,0.0,0.0,93,0.01,,SKC,0.00,VWS V14.01,2013-03-19 04:30:00,
2013-03-19 00:35:00,32.3,30.5,29.82,WSW,255,0.0,0.0,93,0.01,,SKC,0.00,VWS V14.01,2013-03-19 04:35:00,
2013-03-19 00:40:00,32.3,30.5,29.82,WSW,255,0.0,0.0,93,0.01,,SKC,0.00,VWS V14.01,2013-03-19 04:40:00,
2013-03-19 00:45:00,32.2,30.4,29.81,WSW,255,0.0,2.0,93,0.01,,SKC,0.00,VWS V14.01,2013-03-19 04:45:00,
2013-03-19 00:50:00,32.2,30.4,29.81,WSW,255,0.0,0.0,93,0.01,,SKC,0.00,VWS V14.01,2013-03-19 04:50:00,
2013-03-19 00:55:00,32.1,30.3,29.81,WSW,255,0.0,0.0,93,0.01,,SKC,0.00,VWS V14.01,2013-03-19 04:55:00,
2013-03-19 01:00:00,32.1,30.3,29.80,WNW,290,0.0,0.0,93,0.01,,SKC,0.00,VWS V14.01,2013-03-19 05:00:00,
2013-03-19 01:05:00,32.1,30.3,29.80,WNW,290,0.0,0.0,93,0.01,,SKC,0.00,VWS V14.01,2013-03-19 05:05:00,
2013-03-19 01:10:00,32.0,30.2,29.80,WNW,290,0.0,0.0,93,0.00,,SKC,0.00,VWS V14.01,2013-03-19 05:10:00,
2013-03-19 01:15:00,32.0,30.2,29.80,WNW,290,0.0,0.0,93,0.00,,SKC,0.00,VWS V14.01,2013-03-19 05:15:00,
2013-03-19 01:20:00,31.9,30.1,29.80,WNW,290,0.0,0.0,93,0.00,,SKC,0.00,VWS V14.01,2013-03-19 05:20:00,
2013-03-19 01:25:00,31.9,30.1,29.80,WNW,290,0.0,0.0,93,0.00,,SKC,0.00,VWS V14.01,2013-03-19 05:25:00,
2013-03-19 01:30:00,31.7,29.9,29.79,WNW,290,0.0,0.0,93,0.00,,SKC,0.00,VWS V14.01,2013-03-19 05:30:00,
2013-03-19 01:35:00,31.7,29.9,29.79,WNW,290,0.0,0.0,93,0.00,,SKC,0.00,VWS V14.01,2013-03-19 05:35:00,
2013-03-19 01:40:00,31.6,29.8,29.78,SSW,200,0.0,0.0,93,0.00,,SKC,0.00,VWS V14.01,2013-03-19 05:40:00,
2013-03-19 01:45:00,31.6,29.8,29.79,WSW,252,0.0,0.0,93,0.00,,SKC,0.00,VWS V14.01,2013-03-19 05:45:00,
2013-03-19 01:50:00,31.5,29.7,29.79,West,279,0.0,2.0,93,0.00,,SKC,0.00,VWS V14.01,2013-03-19 05:50:00,
2013-03-19 01:55:00,31.5,29.7,29.78,WNW,296,0.0,0.0,93,0.00,,SKC,0.00,VWS V14.01,2013-03-19 05:55:00,
2013-03-19 02:00:00,31.5,29.7,29.78,WNW,296,0.0,0.0,93,0.00,,SKC,0.00,VWS V14.01,2013-03-19 06:00:00,
2013-03-19 02:05:00,31.5,29.7,29.78,WNW,296,0.0,0.0,93,0.00,,SKC,0.00,VWS V14.01,2013-03-19 06:05:00,
2013-03-19 02:10:00,31.5,29.7,29.78,WNW,296,0.0,0.0,93,0.00,,SKC,0.00,VWS V14.01,2013-03-19 06:10:00,
2013-03-19 02:15:00,31.5,29.7,29.78,WNW,296,0.0,0.0,93,0.00,,SKC,0.00,VWS V14.01,2013-03-19 06:15:00,
2013-03-19 02:20:00,31.4,29.6,29.77,WNW,296,0.0,0.0,93,0.00,,SKC,0.00,VWS V14.01,2013-03-19 06:20:00,
2013-03-19 02:25:00,31.4,29.6,29.78,WNW,296,0.0,0.0,93,0.00,,SKC,0.00,VWS V14.01,2013-03-19 06:25:00,
2013-03-19 02:30:00,31.3,29.5,29.77,WNW,296,0.0,0.0,93,0.00,,SKC,0.00,VWS V14.01,2013-03-19 06:30:00,
2013-03-19 02:35:00,31.3,29.8,29.76,WNW,296,0.0,0.0,94,0.00,,SKC,0.00,VWS V14.01,2013-03-19 06:35:00,
2013-03-19 02:40:00,31.2,29.7,29.77,WNW,296,2.0,2.0,94,0.00,,SKC,0.00,VWS V14.01,2013-03-19 06:40:00,
2013-03-19 02:45:00,31.2,29.7,29.78,WNW,296,0.0,0.0,94,0.00,,SKC,0.00,VWS V14.01,2013-03-19 06:45:00,
2013-03-19 02:50:00,31.1,29.3,29.77,WNW,296,0.0,0.0,93,0.00,,SKC,0.00,VWS V14.01,2013-03-19 06:50:00,
2013-03-19 02:55:00,31.1,29.3,29.77,WNW,296,0.0,0.0,93,0.00,,SKC,0.00,VWS V14.01,2013-03-19 06:55:00,
2013-03-19 03:00:00,31.1,29.3,29.76,WNW,296,0.0,0.0,93,0.00,,SKC,0.00,VWS V14.01,2013-03-19 07:00:00,
2013-03-19 03:05:00,31.1,29.6,29.77,WNW,296,0.0,0.0,94,0.00,,SKC,0.00,VWS V14.01,2013-03-19 07:05:00,
2013-03-19 03:10:00,31.1,29.6,29.77,WNW,296,0.0,0.0,94,0.00,,SKC,0.00,VWS V14.01,2013-03-19 07:10:00,
2013-03-19 03:15:00,31.2,29.7,29.76,WNW,296,0.0,0.0,94,0.00,,SKC,0.00,VWS V14.01,2013-03-19 07:15:00,
2013-03-19 03:20:00,31.2,29.7,29.76,WNW,296,0.0,0.0,94,0.00,,SKC,0.00,VWS V14.01,2013-03-19 07:20:00,
2013-03-19 03:25:00,31.2,29.7,29.75,WNW,296,0.0,0.0,94,0.00,,SKC,0.00,VWS V14.01,2013-03-19 07:25:00,
2013-03-19 03:30:00,31.2,29.7,29.75,WNW,296,0.0,0.0,94,0.00,,SKC,0.00,VWS V14.01,2013-03-19 07:30:00,
2013-03-19 03:35:00,31.3,29.8,29.76,WNW,296,0.0,0.0,94,0.00,,SKC,0.00,VWS V14.01,2013-03-19 07:35:00,
2013-03-19 03:40:00,31.4,29.9,29.75,WNW,296,0.0,0.0,94,0.00,,SKC,0.00,VWS V14.01,2013-03-19 07:40:00,
2013-03-19 03:45:00,31.4,29.9,29.75,WNW,296,0.0,0.0,94,0.00,,SKC,0.00,VWS V14.01,2013-03-19 07:45:00,
2013-03-19 03:50:00,31.4,29.9,29.74,WNW,296,0.0,0.0,94,0.00,,SKC,0.00,VWS V14.01,2013-03-19 07:50:00,
2013-03-19 03:55:00,31.4,29.9,29.75,WNW,296,0.0,0.0,94,0.00,,SKC,0.00,VWS V14.01,2013-03-19 07:55:00,
2013-03-19 04:00:00,31.4,29.9,29.75,WNW,296,0.0,0.0,94,0.00,,SKC,0.00,VWS V14.01,2013-03-19 08:00:00,
2013-03-19 04:05:00,31.4,29.9,29.75,WNW,296,0.0,0.0,94,0.00,,SKC,0.00,VWS V14.01,2013-03-19 08:05:00,
2013-03-19 04:10:00,31.3,29.8,29.74,WNW,296,0.0,0.0,94,0.00,,SKC,0.00,VWS V14.01,2013-03-19 08:10:00,
2013-03-19 04:15:00,31.3,29.8,29.74,WNW,296,0.0,0.0,94,0.00,,SKC,0.00,VWS V14.01,2013-03-19 08:15:00,
2013-03-19 04:20:00,31.2,29.7,29.74,WNW,296,0.0,0.0,94,0.00,,SKC,0.00,VWS V14.01,2013-03-19 08:20:00,
2013-03-19 04:25:00,31.2,29.7,29.73,WNW,296,0.0,0.0,94,0.00,,SKC,0.00,VWS V14.01,2013-03-19 08:25:00,
2013-03-19 04:30:00,31.2,29.7,29.73,WNW,296,0.0,0.0,94,0.00,,SKC,0.00,VWS V14.01,2013-03-19 08:30:00,
2013-03-19 04:35:00,31.1,29.6,29.73,WNW,296,0.0,0.0,94,0.00,,SKC,0.00,VWS V14.01,2013-03-19 08:35:00,
2013-03-19 04:40:00,31.1,29.6,29.74,WNW,296,0.0,0.0,94,0.00,,SKC,0.00,VWS V14.01,2013-03-19 08:40:00,
2013-03-19 04:45:00,31.1,29.6,29.74,WNW,296,0.0,0.0,94,0.00,,SKC,0.00,VWS V14.01,2013-03-19 08:45:00,
2013-03-19 04:50:00,31.1,29.6,29.73,WNW,296,0.0,0.0,94,0.00,,SKC,0.00,VWS V14.01,2013-03-19 08:50:00,
2013-03-19 04:55:00,31.1,29.6,29.73,WNW,296,0.0,0.0,94,0.00,,SKC,0.00,VWS V14.01,2013-03-19 08:55:00,
2013-03-19 05:00:00,31.1,29.6,29.73,WNW,296,0.0,0.0,94,0.00,,SKC,0.00,VWS V14.01,2013-03-19 09:00:00,
2013-03-19 05:05:00,31.1,29.6,29.73,WNW,296,0.0,0.0,94,0.00,,SKC,0.00,VWS V14.01,2013-03-19 09:05:00,
2013-03-19 05:10:00,31.1,29.6,29.73,WNW,296,0.0,0.0,94,0.00,,SKC,0.00,VWS V14.01,2013-03-19 09:10:00,
2013-03-19 05:15:00,31.2,29.7,29.73,WNW,296,0.0,0.0,94,0.00,,SKC,0.00,VWS V14.01,2013-03-19 09:15:00,
2013-03-19 05:20:00,31.3,29.8,29.73,WNW,296,0.0,0.0,94,0.00,,SKC,0.00,VWS V14.01,2013-03-19 09:20:00,
2013-03-19 05:25:00,31.3,29.8,29.73,WNW,296,0.0,0.0,94,0.00,,SKC,0.00,VWS V14.01,2013-03-19 09:25:00,
2013-03-19 05:30:00,31.3,29.8,29.73,WNW,296,0.0,0.0,94,0.00,,SKC,0.00,VWS V14.01,2013-03-19 09:30:00,
2013-03-19 05:35:00,31.4,29.9,29.73,WNW,296,0.0,0.0,94,0.00,,SKC,0.00,VWS V14.01,2013-03-19 09:35:00,
2013-03-19 05:40:00,31.3,29.8,29.73,WNW,296,0.0,0.0,94,0.00,,SKC,0.00,VWS V14.01,2013-03-19 09:40:00,
2013-03-19 05:45:00,31.3,29.8,29.73,WNW,296,0.0,0.0,94,0.00,,SKC,0.00,VWS V14.01,2013-03-19 09:45:00,
2013-03-19 05:50:00,31.3,29.8,29.73,WNW,296,0.0,0.0,94,0.00,,SKC,0.00,VWS V14.01,2013-03-19 09:50:00,
2013-03-19 05:55:00,31.3,29.8,29.74,WNW,296,0.0,0.0,94,0.00,,SKC,0.00,VWS V14.01,2013-03-19 09:55:00,
2013-03-19 06:00:00,31.3,29.8,29.74,WNW,296,0.0,0.0,94,0.00,,SKC,0.00,VWS V14.01,2013-03-19 10:00:00,
2013-03-19 06:05:00,31.4,29.9,29.75,WNW,296,0.0,0.0,94,0.00,,SKC,0.00,VWS V14.01,2013-03-19 10:05:00,
2013-03-19 06:10:00,31.4,29.9,29.78,NW,319,0.0,0.0,94,0.00,,SKC,0.00,VWS V14.01,2013-03-19 10:10:00,
2013-03-19 06:15:00,31.3,29.8,29.78,ESE,111,2.0,2.0,94,0.00,,SKC,0.00,VWS V14.01,2013-03-19 10:15:00,
2013-03-19 06:20:00,31.2,29.7,29.78,ESE,121,4.0,5.0,94,0.00,,SKC,0.00,VWS V14.01,2013-03-19 10:20:00,
2013-03-19 06:25:00,31.2,29.7,29.77,SSE,149,0.0,3.0,94,0.00,,SKC,0.00,VWS V14.01,2013-03-19 10:25:00,
2013-03-19 06:30:00,31.2,29.7,29.77,SSE,159,0.0,0.0,94,0.00,,SKC,0.00,VWS V14.01,2013-03-19 10:30:00,
2013-03-19 06:35:00,31.3,29.8,29.77,SSE,159,0.0,0.0,94,0.00,,SKC,0.00,VWS V14.01,2013-03-19 10:35:00,
2013-03-19 06:40:00,31.4,30.1,29.78,SSE,159,0.0,0.0,95,0.00,,SKC,0.00,VWS V14.01,2013-03-19 10:40:00,
2013-03-19 06:45:00,31.6,30.1,29.78,SSE,159,0.0,0.0,94,0.00,,SKC,0.00,VWS V14.01,2013-03-19 10:45:00,
2013-03-19 06:50:00,31.8,30.5,29.78,SSE,159,0.0,0.0,95,0.00,,SKC,0.00,VWS V14.01,2013-03-19 10:50:00,
2013-03-19 06:55:00,32.0,30.7,29.78,SSE,159,0.0,0.0,95,0.00,,SKC,0.00,VWS V14.01,2013-03-19 10:55:00,
2013-03-19 07:00:00,32.2,30.9,29.78,SSE,159,0.0,0.0,95,0.00,,SKC,0.00,VWS V14.01,2013-03-19 11:00:00,
2013-03-19 07:05:00,32.4,31.1,29.79,SSE,159,0.0,0.0,95,0.00,,SKC,0.00,VWS V14.01,2013-03-19 11:05:00,
2013-03-19 07:10:00,32.6,31.3,29.79,ENE,76,0.0,2.0,95,0.00,,SKC,0.00,VWS V14.01,2013-03-19 11:10:00,
2013-03-19 07:15:00,32.8,31.5,29.79,NNW,329,0.0,0.0,95,0.00,,SKC,0.00,VWS V14.01,2013-03-19 11:15:00,
2013-03-19 07:20:00,33.0,31.7,29.79,NNW,329,0.0,0.0,95,0.00,,SKC,0.00,VWS V14.01,2013-03-19 11:20:00,
2013-03-19 07:25:00,33.2,31.9,29.79,NNW,329,0.0,0.0,95,0.00,,SKC,0.00,VWS V14.01,2013-03-19 11:25:00,
2013-03-19 07:30:00,33.4,32.1,29.79,NNW,329,0.0,0.0,95,0.00,,SKC,0.00,VWS V14.01,2013-03-19 11:30:00,
2013-03-19 07:35:00,33.5,32.2,29.79,NNW,329,0.0,0.0,95,0.00,,SKC,0.00,VWS V14.01,2013-03-19 11:35:00,
2013-03-19 07:40:00,33.6,32.3,29.79,NNW,329,0.0,0.0,95,0.00,,SKC,0.00,VWS V14.01,2013-03-19 11:40:00,
2013-03-19 07:45:00,33.7,32.4,29.79,NNW,329,0.0,0.0,95,0.00,,SKC,0.00,VWS V14.01,2013-03-19 11:45:00,
2013-03-19 07:50:00,33.7,32.4,29.79,NNW,329,0.0,0.0,95,0.00,,SKC,0.00,VWS V14.01,2013-03-19 11:50:00,
2013-03-19 07:55:00,33.8,32.5,29.79,NW,306,0.0,0.0,95,0.00,,SKC,0.00,VWS V14.01,2013-03-19 11:55:00,
2013-03-19 08:00:00,34.0,32.7,29.80,NW,306,0.0,0.0,95,0.00,,SKC,0.00,VWS V14.01,2013-03-19 12:00:00,
2013-03-19 08:05:00,34.1,32.8,29.80,ENE,67,0.0,0.0,95,0.00,,SKC,0.00,VWS V14.01,2013-03-19 12:05:00,
2013-03-19 08:10:00,34.4,33.1,29.80,ENE,67,0.0,0.0,95,0.00,,SKC,0.00,VWS V14.01,2013-03-19 12:10:00,
2013-03-19 08:15:00,34.4,33.1,29.79,SSE,162,0.0,0.0,95,0.00,,SKC,0.00,VWS V14.01,2013-03-19 12:15:00,
2013-03-19 08:20:00,34.4,33.1,29.80,SSW,211,3.0,4.0,95,0.01,,SKC,0.01,VWS V14.01,2013-03-19 12:20:00,
2013-03-19 08:25:00,34.6,33.3,29.80,SSE,147,2.0,5.0,95,0.01,,SKC,0.01,VWS V14.01,2013-03-19 12:25:00,
2013-03-19 08:30:00,34.6,33.3,29.80,South,169,0.0,2.0,95,0.01,,SKC,0.01,VWS V14.01,2013-03-19 12:30:00,
2013-03-19 08:35:00,34.6,33.3,29.80,SSW,211,0.0,0.0,95,0.01,,SKC,0.01,VWS V14.01,2013-03-19 12:35:00,
2013-03-19 08:40:00,34.7,33.4,29.80,WSW,244,0.0,2.0,95,0.01,,SKC,0.01,VWS V14.01,2013-03-19 12:40:00,
2013-03-19 08:45:00,34.8,33.5,29.80,WSW,242,1.0,3.0,95,0.01,,SKC,0.01,VWS V14.01,2013-03-19 12:45:00,
2013-03-19 08:50:00,34.8,33.5,29.80,SSE,168,5.0,6.0,95,0.01,,SKC,0.01,VWS V14.01,2013-03-19 12:50:00,
2013-03-19 08:55:00,34.9,33.6,29.81,South,173,0.0,2.0,95,0.01,,SKC,0.01,VWS V14.01,2013-03-19 12:55:00,
2013-03-19 09:00:00,35.4,34.1,29.80,SSW,196,1.0,4.0,95,0.02,,SKC,0.02,VWS V14.01,2013-03-19 13:00:00,
2013-03-19 09:05:00,35.8,34.5,29.80,South,187,0.0,1.0,95,0.02,,SKC,0.02,VWS V14.01,2013-03-19 13:05:00,
2013-03-19 09:10:00,35.5,34.2,29.79,West,280,0.0,3.0,95,0.02,,SKC,0.02,VWS V14.01,2013-03-19 13:10:00,
2013-03-19 09:15:00,36.0,34.7,29.80,WNW,284,0.0,1.0,95,0.02,,SKC,0.02,VWS V14.01,2013-03-19 13:15:00,
2013-03-19 09:20:00,36.1,34.8,29.80,WNW,285,1.0,2.0,95,0.01,,SKC,0.02,VWS V14.01,2013-03-19 13:20:00,
2013-03-19 09:25:00,36.3,34.7,29.80,WSW,253,0.0,0.0,94,0.01,,SKC,0.02,VWS V14.01,2013-03-19 13:25:00,
2013-03-19 09:30:00,36.6,34.8,29.80,West,268,0.0,1.0,93,0.01,,SKC,0.02,VWS V14.01,2013-03-19 13:30:00,
2013-03-19 09:35:00,36.2,34.1,29.80,NNW,331,2.0,4.0,92,0.02,,SKC,0.03,VWS V14.01,2013-03-19 13:35:00,
2013-03-19 09:40:00,36.5,33.8,29.80,SW,226,0.0,1.0,90,0.02,,SKC,0.03,VWS V14.01,2013-03-19 13:40:00,
2013-03-19 09:45:00,36.3,33.7,29.79,West,274,4.0,4.0,90,0.02,,SKC,0.03,VWS V14.01,2013-03-19 13:45:00,
2013-03-19 09:50:00,36.3,33.7,29.79,WNW,298,2.0,2.0,90,0.02,,SKC,0.03,VWS V14.01,2013-03-19 13:50:00,
2013-03-19 09:55:00,36.4,33.5,29.79,NNW,343,1.0,5.0,89,0.03,,SKC,0.04,VWS V14.01,2013-03-19 13:55:00,
2013-03-19 10:00:00,36.2,33.3,29.79,SW,234,0.0,1.0,89,0.02,,SKC,0.04,VWS V14.01,2013-03-19 14:00:00,
2013-03-19 10:05:00,36.6,33.4,29.79,WSW,257,5.0,10.0,88,0.02,,SKC,0.04,VWS V14.01,2013-03-19 14:05:00,
2013-03-19 10:10:00,37.5,33.4,29.79,SE,146,5.0,7.0,85,0.02,,SKC,0.04,VWS V14.01,2013-03-19 14:10:00,
2013-03-19 10:15:00,38.2,32.9,29.79,WSW,257,2.0,5.0,81,0.02,,SKC,0.04,VWS V14.01,2013-03-19 14:15:00,
2013-03-19 10:20:00,38.6,32.3,29.78,NNW,331,0.0,0.0,78,0.04,,SKC,0.06,VWS V14.01,2013-03-19 14:20:00,
2013-03-19 10:25:00,39.2,31.6,29.78,WNW,296,8.0,8.0,74,0.05,,SKC,0.07,VWS V14.01,2013-03-19 14:25:00,
2013-03-19 10:30:00,39.4,31.8,29.78,WSW,248,6.0,6.0,74,0.07,,SKC,0.09,VWS V14.01,2013-03-19 14:30:00,
2013-03-19 10:35:00,39.5,31.2,29.78,West,271,1.0,1.0,72,0.07,,SKC,0.10,VWS V14.01,2013-03-19 14:35:00,
2013-03-19 10:40:00,39.2,32.3,29.78,WNW,293,1.0,1.0,76,0.09,,SKC,0.12,VWS V14.01,2013-03-19 14:40:00,
2013-03-19 10:45:00,39.9,32.0,29.78,SSW,202,1.0,4.0,73,0.10,,SKC,0.13,VWS V14.01,2013-03-19 14:45:00,
2013-03-19 10:50:00,39.9,31.6,29.77,West,272,0.0,0.0,72,0.12,,SKC,0.15,VWS V14.01,2013-03-19 14:50:00,
2013-03-19 10:55:00,40.0,30.7,29.77,West,263,8.0,8.0,69,0.13,,SKC,0.16,VWS V14.01,2013-03-19 14:55:00,
2013-03-19 11:00:00,40.3,31.0,29.77,WSW,238,0.0,0.0,69,0.14,,SKC,0.18,VWS V14.01,2013-03-19 15:00:00,
2013-03-19 11:05:00,40.7,32.0,29.76,WSW,252,0.0,1.0,71,0.16,,SKC,0.20,VWS V14.01,2013-03-19 15:05:00,
2013-03-19 11:10:00,40.5,31.5,29.77,West,265,0.0,0.0,70,0.17,,SKC,0.21,VWS V14.01,2013-03-19 15:10:00,
2013-03-19 11:15:00,41.3,31.2,29.77,South,179,0.0,1.0,67,0.18,,SKC,0.22,VWS V14.01,2013-03-19 15:15:00,
2013-03-19 11:20:00,41.6,31.5,29.76,North,351,0.0,0.0,67,0.18,,SKC,0.24,VWS V14.01,2013-03-19 15:20:00,
2013-03-19 11:25:00,42.1,31.2,29.76,South,180,9.0,9.0,65,0.17,,SKC,0.24,VWS V14.01,2013-03-19 15:25:00,
2013-03-19 11:30:00,41.2,30.7,29.76,WSW,241,0.0,1.0,66,0.15,,SKC,0.24,VWS V14.01,2013-03-19 15:30:00,
2013-03-19 11:35:00,41.0,31.3,29.77,NW,319,0.0,0.0,68,0.15,,SKC,0.25,VWS V14.01,2013-03-19 15:35:00,
2013-03-19 11:40:00,41.7,31.6,29.76,SSE,157,0.0,2.0,67,0.15,,SKC,0.27,VWS V14.01,2013-03-19 15:40:00,
2013-03-19 11:45:00,42.0,30.3,29.75,SSW,198,2.0,2.0,63,0.15,,SKC,0.28,VWS V14.01,2013-03-19 15:45:00,
2013-03-19 11:50:00,41.9,31.0,29.76,SSW,198,1.0,1.0,65,0.14,,SKC,0.29,VWS V14.01,2013-03-19 15:50:00,
2013-03-19 11:55:00,42.9,31.2,29.76,SSW,192,9.0,9.0,63,0.14,,SKC,0.30,VWS V14.01,2013-03-19 15:55:00,
2013-03-19 12:00:00,43.0,30.9,29.77,NW,319,1.0,1.0,62,0.14,,SKC,0.32,VWS V14.01,2013-03-19 16:00:00,
2013-03-19 12:05:00,42.9,31.2,29.77,SSE,148,0.0,1.0,63,0.13,,SKC,0.32,VWS V14.01,2013-03-19 16:05:00,
2013-03-19 12:10:00,43.8,30.0,29.76,WSW,253,1.0,1.0,58,0.13,,SKC,0.34,VWS V14.01,2013-03-19 16:10:00,
2013-03-19 12:15:00,44.0,31.8,29.76,SSW,205,3.0,5.0,62,0.12,,SKC,0.34,VWS V14.01,2013-03-19 16:15:00,
2013-03-19 12:20:00,43.4,31.7,29.76,West,266,4.0,4.0,63,0.11,,SKC,0.35,VWS V14.01,2013-03-19 16:20:00,
2013-03-19 12:25:00,43.4,31.7,29.77,WSW,239,2.0,4.0,63,0.12,,SKC,0.36,VWS V14.01,2013-03-19 16:25:00,
2013-03-19 12:30:00,44.0,31.0,29.76,NE,46,1.0,1.0,60,0.13,,SKC,0.37,VWS V14.01,2013-03-19 16:30:00,
2013-03-19 12:35:00,44.3,30.9,29.75,WNW,293,3.0,6.0,59,0.12,,SKC,0.37,VWS V14.01,2013-03-19 16:35:00,
2013-03-19 12:40:00,44.3,30.5,29.75,WNW,289,4.0,4.0,58,0.12,,SKC,0.38,VWS V14.01,2013-03-19 16:40:00,
2013-03-19 12:45:00,44.7,31.3,29.75,SW,229,6.0,7.0,59,0.11,,SKC,0.39,VWS V14.01,2013-03-19 16:45:00,
2013-03-19 12:50:00,45.4,32.3,29.75,NW,319,7.0,7.0,60,0.10,,SKC,0.39,VWS V14.01,2013-03-19 16:50:00,
2013-03-19 12:55:00,45.7,31.4,29.74,NW,325,3.0,11.0,57,0.10,,SKC,0.40,VWS V14.01,2013-03-19 16:55:00,
2013-03-19 13:00:00,44.7,31.7,29.74,WNW,285,1.0,1.0,60,0.08,,SKC,0.40,VWS V14.01,2013-03-19 17:00:00,
2013-03-19 13:05:00,45.0,32.4,29.74,West,265,0.0,8.0,61,0.08,,SKC,0.40,VWS V14.01,2013-03-19 17:05:00,
2013-03-19 13:10:00,45.7,30.0,29.75,West,259,7.0,7.0,54,0.07,,SKC,0.41,VWS V14.01,2013-03-19 17:10:00,
2013-03-19 13:15:00,46.8,33.2,29.74,WNW,289,0.0,1.0,59,0.07,,SKC,0.41,VWS V14.01,2013-03-19 17:15:00,
2013-03-19 13:20:00,46.1,31.3,29.74,East,101,4.0,10.0,56,0.06,,SKC,0.41,VWS V14.01,2013-03-19 17:20:00,
2013-03-19 13:25:00,45.2,31.3,29.74,NW,323,0.0,1.0,58,0.05,,SKC,0.41,VWS V14.01,2013-03-19 17:25:00,
2013-03-19 13:30:00,44.9,31.0,29.74,SSW,192,6.0,7.0,58,0.05,,SKC,0.42,VWS V14.01,2013-03-19 17:30:00,
2013-03-19 13:35:00,45.0,32.0,29.74,North,360,4.0,10.0,60,0.05,,SKC,0.42,VWS V14.01,2013-03-19 17:35:00,
2013-03-19 13:40:00,45.6,29.5,29.74,NNW,342,0.0,9.0,53,0.04,,SKC,0.42,VWS V14.01,2013-03-19 17:40:00,
2013-03-19 13:45:00,46.6,30.9,29.74,WNW,302,6.0,14.0,54,0.03,,SKC,0.42,VWS V14.01,2013-03-19 17:45:00,
2013-03-19 13:50:00,47.2,31.0,29.73,NNW,339,4.0,10.0,53,0.03,,SKC,0.42,VWS V14.01,2013-03-19 17:50:00,
2013-03-19 13:55:00,46.6,30.4,29.74,North,360,5.0,5.0,53,0.02,,SKC,0.42,VWS V14.01,2013-03-19 17:55:00,
2013-03-19 14:00:00,45.9,30.2,29.74,NW,318,1.0,10.0,54,0.02,,SKC,0.42,VWS V14.01,2013-03-19 18:00:00,
2013-03-19 14:05:00,46.2,30.9,29.75,West,264,7.0,10.0,55,0.02,,SKC,0.42,VWS V14.01,2013-03-19 18:05:00,
2013-03-19 14:10:00,46.3,30.1,29.75,WSW,237,1.0,7.0,53,0.01,,SKC,0.42,VWS V14.01,2013-03-19 18:10:00,
2013-03-19 14:15:00,46.8,30.1,29.74,West,261,5.0,8.0,52,0.01,,SKC,0.42,VWS V14.01,2013-03-19 18:15:00,
2013-03-19 14:20:00,47.1,29.9,29.73,North,360,4.0,4.0,51,0.01,,SKC,0.42,VWS V14.01,2013-03-19 18:20:00,
2013-03-19 14:25:00,46.5,31.2,29.73,NNW,329,3.0,8.0,55,0.01,,SKC,0.42,VWS V14.01,2013-03-19 18:25:00,
2013-03-19 14:30:00,46.8,31.0,29.73,SW,220,8.0,11.0,54,0.00,,SKC,0.42,VWS V14.01,2013-03-19 18:30:00,
2013-03-19 14:35:00,47.1,30.4,29.73,SW,235,5.0,8.0,52,0.00,,SKC,0.42,VWS V14.01,2013-03-19 18:35:00,
2013-03-19 14:40:00,46.7,30.5,29.73,NE,49,0.0,1.0,53,0.00,,SKC,0.42,VWS V14.01,2013-03-19 18:40:00,
2013-03-19 14:45:00,46.3,31.0,29.74,NW,323,5.0,8.0,55,0.00,,SKC,0.42,VWS V14.01,2013-03-19 18:45:00,
2013-03-19 14:50:00,47.1,30.4,29.74,North,360,6.0,11.0,52,0.00,,SKC,0.42,VWS V14.01,2013-03-19 18:50:00,
2013-03-19 14:55:00,47.0,30.3,29.73,WSW,242,8.0,8.0,52,0.00,,SKC,0.42,VWS V14.01,2013-03-19 18:55:00,
2013-03-19 15:00:00,46.9,30.7,29.73,WNW,286,1.0,1.0,53,0.00,,SKC,0.42,VWS V14.01,2013-03-19 19:00:00,
2013-03-19 15:05:00,46.9,29.7,29.74,West,267,7.0,16.0,51,0.00,,SKC,0.42,VWS V14.01,2013-03-19 19:05:00,
2013-03-19 15:10:00,47.3,29.6,29.74,SSE,155,8.0,8.0,50,0.00,,SKC,0.42,VWS V14.01,2013-03-19 19:10:00,
2013-03-19 15:15:00,47.3,28.1,29.74,NNW,336,4.0,8.0,47,0.00,,SKC,0.42,VWS V14.01,2013-03-19 19:15:00,
2013-03-19 15:20:00,47.6,28.9,29.74,West,270,11.0,11.0,48,0.00,,SKC,0.42,VWS V14.01,2013-03-19 19:20:00,
2013-03-19 15:25:00,47.3,28.1,29.74,South,186,2.0,4.0,47,0.00,,SKC,0.42,VWS V14.01,2013-03-19 19:25:00,
2013-03-19 15:30:00,47.3,27.6,29.74,West,269,6.0,13.0,46,0.00,,SKC,0.42,VWS V14.01,2013-03-19 19:30:00,
2013-03-19 15:35:00,47.1,28.4,29.74,SE,142,5.0,8.0,48,0.00,,SKC,0.42,VWS V14.01,2013-03-19 19:35:00,
2013-03-19 15:40:00,46.9,26.7,29.75,NNE,31,4.0,7.0,45,0.00,,SKC,0.42,VWS V14.01,2013-03-19 19:40:00,
2013-03-19 15:45:00,47.0,29.3,29.74,WSW,257,1.0,4.0,50,0.00,,SKC,0.42,VWS V14.01,2013-03-19 19:45:00,
2013-03-19 15:50:00,47.1,25.8,29.75,NNW,342,12.0,15.0,43,0.00,,SKC,0.42,VWS V14.01,2013-03-19 19:50:00,
2013-03-19 15:55:00,46.8,27.1,29.74,North,355,5.0,11.0,46,0.00,,SKC,0.42,VWS V14.01,2013-03-19 19:55:00,
2013-03-19 16:00:00,46.3,25.0,29.75,North,5,7.0,7.0,43,0.00,,SKC,0.42,VWS V14.01,2013-03-19 20:00:00,
2013-03-19 16:05:00,46.1,25.4,29.75,WNW,292,8.0,12.0,44,0.00,,SKC,0.42,VWS V14.01,2013-03-19 20:05:00,
2013-03-19 16:10:00,45.7,25.6,29.75,NNW,327,5.0,5.0,45,0.00,,SKC,0.42,VWS V14.01,2013-03-19 20:10:00,
2013-03-19 16:15:00,45.4,25.3,29.76,West,263,10.0,10.0,45,0.00,,SKC,0.42,VWS V14.01,2013-03-19 20:15:00,
2013-03-19 16:20:00,45.4,24.2,29.75,WSW,238,7.0,7.0,43,0.00,,SKC,0.42,VWS V14.01,2013-03-19 20:20:00,
2013-03-19 16:25:00,45.4,25.3,29.76,NW,325,4.0,9.0,45,0.00,,SKC,0.42,VWS V14.01,2013-03-19 20:25:00,
2013-03-19 16:30:00,45.0,24.4,29.77,SE,137,2.0,7.0,44,0.00,,SKC,0.42,VWS V14.01,2013-03-19 20:30:00,
2013-03-19 16:35:00,45.1,24.5,29.76,WSW,249,10.0,12.0,44,0.00,,SKC,0.42,VWS V14.01,2013-03-19 20:35:00,
2013-03-19 16:40:00,45.1,25.6,29.77,SSW,201,1.0,9.0,46,0.00,,SKC,0.42,VWS V14.01,2013-03-19 20:40:00,
2013-03-19 16:45:00,45.1,26.1,29.76,SSW,192,4.0,4.0,47,0.00,,SKC,0.42,VWS V14.01,2013-03-19 20:45:00,
2013-03-19 16:50:00,45.4,25.3,29.77,NNW,344,7.0,10.0,45,0.00,,SKC,0.42,VWS V14.01,2013-03-19 20:50:00,
2013-03-19 16:55:00,45.2,23.5,29.77,South,173,5.0,5.0,42,0.00,,SKC,0.42,VWS V14.01,2013-03-19 20:55:00,
2013-03-19 17:00:00,45.0,23.3,29.78,West,266,14.0,14.0,42,0.00,,SKC,0.42,VWS V14.01,2013-03-19 21:00:00,
2013-03-19 17:05:00,44.7,22.5,29.77,NW,325,11.0,11.0,41,0.00,,SKC,0.42,VWS V14.01,2013-03-19 21:05:00,
2013-03-19 17:10:00,44.3,22.7,29.78,West,279,10.0,10.0,42,0.00,,SKC,0.42,VWS V14.01,2013-03-19 21:10:00,
2013-03-19 17:15:00,44.2,23.7,29.78,WSW,244,1.0,8.0,44,0.00,,SKC,0.42,VWS V14.01,2013-03-19 21:15:00,
2013-03-19 17:20:00,44.1,23.6,29.78,ESE,113,1.0,2.0,44,0.00,,SKC,0.42,VWS V14.01,2013-03-19 21:20:00,
2013-03-19 17:25:00,44.2,22.6,29.78,WSW,240,4.0,8.0,42,0.00,,SKC,0.42,VWS V14.01,2013-03-19 21:25:00,
2013-03-19 17:30:00,43.9,20.6,29.79,WNW,286,1.0,8.0,39,0.00,,SKC,0.42,VWS V14.01,2013-03-19 21:30:00,
2013-03-19 17:35:00,43.5,22.5,29.79,NW,310,6.0,9.0,43,0.00,,SKC,0.42,VWS V14.01,2013-03-19 21:35:00,
2013-03-19 17:40:00,43.0,19.8,29.79,NW,312,13.0,13.0,39,0.00,,SKC,0.42,VWS V14.01,2013-03-19 21:40:00,
2013-03-19 17:45:00,43.0,20.4,29.80,SE,134,4.0,7.0,40,0.00,,SKC,0.42,VWS V14.01,2013-03-19 21:45:00,
2013-03-19 17:50:00,43.0,20.9,29.80,WNW,291,1.0,4.0,41,0.00,,SKC,0.42,VWS V14.01,2013-03-19 21:50:00,
2013-03-19 17:55:00,43.0,19.8,29.80,NW,313,2.0,11.0,39,0.00,,SKC,0.42,VWS V14.01,2013-03-19 21:55:00,
2013-03-19 18:00:00,42.8,20.2,29.81,West,259,1.0,6.0,40,0.00,,SKC,0.42,VWS V14.01,2013-03-19 22:00:00,
2013-03-19 18:05:00,42.6,20.0,29.81,NNW,336,4.0,18.0,40,0.00,,SKC,0.42,VWS V14.01,2013-03-19 22:05:00,
2013-03-19 18:10:00,42.4,19.2,29.81,NW,323,10.0,16.0,39,0.00,,SKC,0.42,VWS V14.01,2013-03-19 22:10:00,
2013-03-19 18:15:00,42.3,21.4,29.82,West,281,1.0,9.0,43,0.00,,SKC,0.42,VWS V14.01,2013-03-19 22:15:00,
2013-03-19 18:20:00,42.1,19.0,29.82,West,272,10.0,19.0,39,0.00,,SKC,0.42,VWS V14.01,2013-03-19 22:20:00,
2013-03-19 18:25:00,42.1,19.0,29.82,WNW,303,5.0,8.0,39,0.00,,SKC,0.42,VWS V14.01,2013-03-19 22:25:00,
2013-03-19 18:30:00,41.7,19.2,29.83,NNW,340,1.0,2.0,40,0.00,,SKC,0.42,VWS V14.01,2013-03-19 22:30:00,
2013-03-19 18:35:00,41.4,20.0,29.82,West,261,25.0,25.0,42,0.00,,SKC,0.42,VWS V14.01,2013-03-19 22:35:00,
2013-03-19 18:40:00,41.2,19.9,29.82,WSW,248,13.0,13.0,42,0.00,,SKC,0.42,VWS V14.01,2013-03-19 22:40:00,
2013-03-19 18:45:00,41.1,19.2,29.83,NW,309,1.0,4.0,41,0.00,,SKC,0.42,VWS V14.01,2013-03-19 22:45:00,
2013-03-19 18:50:00,40.9,21.2,29.83,SW,226,3.0,6.0,45,0.00,,SKC,0.42,VWS V14.01,2013-03-19 22:50:00,
2013-03-19 18:55:00,40.5,19.8,29.83,West,273,2.0,2.0,43,0.00,,SKC,0.42,VWS V14.01,2013-03-19 22:55:00,
2013-03-19 19:00:00,40.4,19.1,29.84,West,281,8.0,8.0,42,0.00,,SKC,0.42,VWS V14.01,2013-03-19 23:00:00,
2013-03-19 19:05:00,40.1,21.5,29.84,WNW,284,5.0,5.0,47,0.00,,SKC,0.42,VWS V14.01,2013-03-19 23:05:00,
2013-03-19 19:10:00,39.6,18.4,29.83,South,182,1.0,6.0,42,0.00,,SKC,0.42,VWS V14.01,2013-03-19 23:10:00,
2013-03-19 19:15:00,39.5,19.4,29.84,WSW,246,9.0,9.0,44,0.00,,SKC,0.42,VWS V14.01,2013-03-19 23:15:00,
2013-03-19 19:20:00,39.2,20.7,29.84,NW,318,4.0,4.0,47,0.00,,SKC,0.42,VWS V14.01,2013-03-19 23:20:00,
2013-03-19 19:25:00,38.9,20.9,29.84,WSW,245,4.0,14.0,48,0.00,,SKC,0.42,VWS V14.01,2013-03-19 23:25:00,
2013-03-19 19:30:00,38.8,20.8,29.84,West,260,5.0,5.0,48,0.00,,SKC,0.42,VWS V14.01,2013-03-19 23:30:00,
2013-03-19 19:35:00,38.6,20.6,29.85,NNE,30,0.0,10.0,48,0.00,,SKC,0.42,VWS V14.01,2013-03-19 23:35:00,
2013-03-19 19:40:00,38.5,20.5,29.85,NW,305,0.0,10.0,48,0.00,,SKC,0.42,VWS V14.01,2013-03-19 23:40:00,
2013-03-19 19:45:00,38.4,18.4,29.86,WSW,254,6.0,10.0,44,0.00,,SKC,0.42,VWS V14.01,2013-03-19 23:45:00,
2013-03-19 19:50:00,38.6,18.6,29.85,West,271,12.0,13.0,44,0.00,,SKC,0.42,VWS V14.01,2013-03-19 23:50:00,
2013-03-19 19:55:00,38.5,19.5,29.86,SSW,207,5.0,15.0,46,0.00,,SKC,0.42,VWS V14.01,2013-03-19 23:55:00,
2013-03-19 20:00:00,38.5,18.0,29.86,WNW,283,8.0,10.0,43,0.00,,SKC,0.42,VWS V14.01,2013-03-20 00:00:00,
2013-03-19 20:05:00,38.4,18.4,29.85,NW,317,8.0,15.0,44,0.00,,SKC,0.42,VWS V14.01,2013-03-20 00:05:00,
2013-03-19 20:10:00,38.4,19.4,29.85,WSW,246,11.0,11.0,46,0.00,,SKC,0.42,VWS V14.01,2013-03-20 00:10:00,
2013-03-19 20:15:00,38.3,18.3,29.86,WSW,246,24.0,24.0,44,0.00,,SKC,0.42,VWS V14.01,2013-03-20 00:15:00,
2013-03-19 20:20:00,38.3,17.8,29.86,WSW,247,5.0,9.0,43,0.00,,SKC,0.42,VWS V14.01,2013-03-20 00:20:00,
2013-03-19 20:25:00,38.1,17.6,29.87,West,259,4.0,7.0,43,0.00,,SKC,0.42,VWS V14.01,2013-03-20 00:25:00,
2013-03-19 20:30:00,38.2,17.7,29.87,SSW,205,2.0,5.0,43,0.00,,SKC,0.42,VWS V14.01,2013-03-20 00:30:00,
2013-03-19 20:35:00,38.0,19.1,29.88,South,170,3.0,8.0,46,0.00,,SKC,0.42,VWS V14.01,2013-03-20 00:35:00,
2013-03-19 20:40:00,37.8,18.4,29.88,WSW,258,6.0,7.0,45,0.00,,SKC,0.42,VWS V14.01,2013-03-20 00:40:00,
2013-03-19 20:45:00,37.6,19.2,29.88,NW,325,14.0,15.0,47,0.00,,SKC,0.42,VWS V14.01,2013-03-20 00:45:00,
2013-03-19 20:50:00,37.5,18.1,29.87,SW,219,1.0,9.0,45,0.00,,SKC,0.42,VWS V14.01,2013-03-20 00:50:00,
2013-03-19 20:55:00,37.4,18.0,29.88,WNW,296,0.0,6.0,45,0.00,,SKC,0.42,VWS V14.01,2013-03-20 00:55:00,
2013-03-19 21:00:00,37.2,17.8,29.88,SSE,166,7.0,7.0,45,0.00,,SKC,0.42,VWS V14.01,2013-03-20 01:00:00,
2013-03-19 21:05:00,37.1,19.2,29.88,West,281,2.0,7.0,48,0.00,,SKC,0.42,VWS V14.01,2013-03-20 01:05:00,
2013-03-19 21:10:00,36.8,19.0,29.88,NW,315,3.0,9.0,48,0.00,,SKC,0.42,VWS V14.01,2013-03-20 01:10:00,
2013-03-19 21:15:00,36.7,17.4,29.88,SW,230,3.0,12.0,45,0.00,,SKC,0.42,VWS V14.01,2013-03-20 01:15:00,
2013-03-19 21:20:00,36.8,19.0,29.89,WNW,292,8.0,8.0,48,0.00,,SKC,0.42,VWS V14.01,2013-03-20 01:20:00,
2013-03-19 21:25:00,36.7,16.9,29.89,West,279,6.0,6.0,44,0.00,,SKC,0.42,VWS V14.01,2013-03-20 01:25:00,
2013-03-19 21:30:00,36.7,16.3,29.89,SW,216,5.0,8.0,43,0.00,,SKC,0.42,VWS V14.01,2013-03-20 01:30:00,
2013-03-19 21:35:00,36.6,15.7,29.90,WNW,298,2.0,2.0,42,0.00,,SKC,0.42,VWS V14.01,2013-03-20 01:35:00,
2013-03-19 21:40:00,36.3,17.0,29.90,NNW,329,4.0,9.0,45,0.00,,SKC,0.42,VWS V14.01,2013-03-20 01:40:00,
2013-03-19 21:45:00,36.1,17.3,29.91,WNW,302,1.0,5.0,46,0.00,,SKC,0.42,VWS V14.01,2013-03-20 01:45:00,
2013-03-19 21:50:00,35.9,16.1,29.91,West,281,0.0,4.0,44,0.00,,SKC,0.42,VWS V14.01,2013-03-20 01:50:00,
2013-03-19 21:55:00,35.6,17.4,29.91,SSW,211,1.0,1.0,47,0.00,,SKC,0.42,VWS V14.01,2013-03-20 01:55:00,
2013-03-19 22:00:00,35.5,19.2,29.91,WSW,253,0.0,2.0,51,0.00,,SKC,0.42,VWS V14.01,2013-03-20 02:00:00,
2013-03-19 22:05:00,35.4,17.2,29.91,WSW,254,0.0,0.0,47,0.00,,SKC,0.42,VWS V14.01,2013-03-20 02:05:00,
2013-03-19 22:10:00,35.3,17.1,29.91,NW,321,0.0,15.0,47,0.00,,SKC,0.42,VWS V14.01,2013-03-20 02:10:00,
2013-03-19 22:15:00,35.2,18.0,29.91,North,355,2.0,8.0,49,0.00,,SKC,0.42,VWS V14.01,2013-03-20 02:15:00,
2013-03-19 22:20:00,35.1,16.9,29.92,SW,229,2.0,4.0,47,0.00,,SKC,0.42,VWS V14.01,2013-03-20 02:20:00,
2013-03-19 22:25:00,35.1,16.9,29.92,SW,235,8.0,8.0,47,0.00,,SKC,0.42,VWS V14.01,2013-03-20 02:25:00,
2013-03-19 22:30:00,35.2,17.0,29.92,SW,234,5.0,7.0,47,0.00,,SKC,0.42,VWS V14.01,2013-03-20 02:30:00,
2013-03-19 22:35:00,35.2,17.0,29.92,SW,236,7.0,7.0,47,0.00,,SKC,0.42,VWS V14.01,2013-03-20 02:35:00,
2013-03-19 22:40:00,35.2,17.5,29.92,West,260,5.0,5.0,48,0.00,,SKC,0.42,VWS V14.01,2013-03-20 02:40:00,
2013-03-19 22:45:00,34.9,16.7,29.93,WSW,242,2.0,12.0,47,0.00,,SKC,0.42,VWS V14.01,2013-03-20 02:45:00,
2013-03-19 22:50:00,34.8,15.6,29.92,NW,316,5.0,8.0,45,0.00,,SKC,0.42,VWS V14.01,2013-03-20 02:50:00,
2013-03-19 22:55:00,34.8,16.1,29.93,NW,316,3.0,3.0,46,0.00,,SKC,0.42,VWS V14.01,2013-03-20 02:55:00,
2013-03-19 23:00:00,34.6,16.9,29.92,NW,309,2.0,11.0,48,0.00,,SKC,0.42,VWS V14.01,2013-03-20 03:00:00,
2013-03-19 23:05:00,34.4,18.2,29.92,WNW,301,0.0,0.0,51,0.00,,SKC,0.42,VWS V14.01,2013-03-20 03:05:00,
2013-03-19 23:10:00,34.3,17.6,29.93,WSW,246,0.0,4.0,50,0.00,,SKC,0.42,VWS V14.01,2013-03-20 03:10:00,
2013-03-19 23:15:00,34.2,16.6,29.93,West,265,1.0,1.0,48,0.00,,SKC,0.42,VWS V14.01,2013-03-20 03:15:00,
2013-03-19 23:20:00,34.2,16.1,29.93,NW,308,0.0,1.0,47,0.00,,SKC,0.42,VWS V14.01,2013-03-20 03:20:00,
2013-03-19 23:25:00,34.1,17.0,29.93,NNE,24,5.0,10.0,49,0.00,,SKC,0.42,VWS V14.01,2013-03-20 03:25:00,
2013-03-19 23:30:00,34.0,15.9,29.94,WNW,301,8.0,15.0,47,0.00,,SKC,0.42,VWS V14.01,2013-03-20 03:30:00,
2013-03-19 23:35:00,34.0,15.9,29.94,SSW,211,2.0,6.0,47,0.00,,SKC,0.42,VWS V14.01,2013-03-20 03:35:00,
2013-03-19 23:40:00,33.8,15.7,29.94,WNW,291,2.0,5.0,47,0.00,,SKC,0.42,VWS V14.01,2013-03-20 03:40:00,
2013-03-19 23:45:00,33.9,15.8,29.94,NNW,348,8.0,9.0,47,0.00,,SKC,0.42,VWS V14.01,2013-03-20 03:45:00,
2013-03-19 23:50:00,33.9,16.3,29.94,WSW,246,11.0,11.0,48,0.00,,SKC,0.42,VWS V14.01,2013-03-20 03:50:00,
2013-03-19 23:55:00,33.8,15.7,29.94,South,171,5.0,9.0,47,0.00,,SKC,0.42,VWS V14.01,2013-03-20 03:55:00,